Ontario, CA

1:40 PM PDT on March 23, 2017 (GMT -0700)
Ontario International

Weather History for KONT - February, 2014

Change the Weather History Date:

Wednesday, February 12, 2014

  Actual Average Record
Temperature  
Mean Temperature 67 °F 55 °F  
Max Temperature 83 °F 65 °F 87 °F (2016)
Min Temperature 51 °F 45 °F 32 °F (1980)
Degree Days  
Heating Degree Days 0 10  
Month to date heating degree days 109 121  
Since 1 July heating degree days 653 1010  
Cooling Degree Days 2 0  
Month to date cooling degree days 2 0  
Year to date cooling degree days 21 3  
Growing Degree Days 18 (Base 50)    
Moisture  
Dew Point 34 °F    
Average Humidity 37    
Maximum Humidity 62    
Minimum Humidity 11    
Precipitation  
Precipitation 0.00 in 0.14 in 2.94 in (2001)
Month to date precipitation 0.16 1.24  
Year to date precipitation 0.26 4.55  
Since 1 July precipitation 1.18  
Snow  
Snow 0.00 in - - ()
Month to date snowfall 0.0  
Year to date snowfall 0.0  
Snow Depth 0.00 in    
Sea Level Pressure  
Sea Level Pressure 30.07 in    
Wind  
Wind Speed 3 mph (WNW)    
Max Wind Speed 15 mph    
Max Gust Speed 19 mph    
Visibility 10 miles    
Events      
T = Trace of Precipitation, MM = Missing Value Source: NWS Daily Summary

Daily Weather History Graph

Daily Weather History Graph

Search for Another Location

Airport or City:

Trip Planner

Search our weather history database for the weather conditions in past years. The results will help you decide how hot, cold, wet, or windy it might be!

Date:

Astronomy

Feb. 12, 2014 Rise Set
Actual Time 6:38 AM PST 5:31 PM PST
Civil Twilight 6:12 AM PST 5:57 PM PST
Nautical Twilight 5:42 AM PST 6:26 PM PST
Astronomical Twilight 5:13 AM PST 6:55 PM PST
Moon 3:51 PM PST (2/12) 4:55 AM PST (2/12)
Length of Visible Light 11h 45m
Length of Day
10h 53m
Waxing Gibbous, 96% of the Moon is Illuminated
Feb 12
Waxing Gibbous
Feb 14
Full
Feb 22
Last Quarter
Mar 1
New
Mar 8
First Quarter

Hourly Weather History & Observations

Time (PST) Temp. Dew Point Humidity Pressure Visibility Wind Dir Wind Speed Gust Speed Precip Events Conditions
12:53 AM 55.0 °F 41.0 °F 59% 30.07 in 10.0 mi North 3.5 mph - N/A   Scattered Clouds
1:53 AM 55.9 °F 37.0 °F 49% 30.08 in 10.0 mi NNE 4.6 mph - N/A   Scattered Clouds
2:53 AM 54.0 °F 37.9 °F 55% 30.09 in 10.0 mi NE 5.8 mph - N/A   Mostly Cloudy
3:53 AM 53.1 °F 39.0 °F 59% 30.10 in 10.0 mi Calm Calm - N/A   Mostly Cloudy
4:53 AM 53.1 °F 39.0 °F 59% 30.10 in 10.0 mi Calm Calm - N/A   Mostly Cloudy
5:53 AM 53.1 °F 39.0 °F 59% 30.11 in 10.0 mi NE 3.5 mph - N/A   Mostly Cloudy
6:53 AM 55.0 °F 33.1 °F 43% 30.12 in 10.0 mi Calm Calm - N/A   Scattered Clouds
7:53 AM 60.1 °F 32.0 °F 35% 30.13 in 10.0 mi Calm Calm - N/A   Scattered Clouds
8:53 AM 64.9 °F 30.9 °F 28% 30.14 in 10.0 mi Calm Calm - N/A   Scattered Clouds
9:53 AM 71.1 °F 28.0 °F 20% 30.13 in 10.0 mi East 3.5 mph - N/A   Scattered Clouds
10:53 AM 75.0 °F 23.0 °F 14% 30.11 in 10.0 mi Variable 3.5 mph - N/A   Scattered Clouds
11:53 AM 78.1 °F 21.0 °F 12% 30.09 in 8.0 mi Calm Calm - N/A   Scattered Clouds
12:53 PM 80.1 °F 21.0 °F 11% 30.06 in 10.0 mi West 6.9 mph - N/A   Mostly Cloudy
1:53 PM 82.0 °F 24.1 °F 12% 30.03 in 10.0 mi WSW 6.9 mph - N/A   Overcast
2:53 PM 82.0 °F 30.0 °F 15% 30.02 in 10.0 mi SW 13.8 mph - N/A   Mostly Cloudy
3:53 PM 81.0 °F 30.9 °F 16% 30.02 in 10.0 mi WSW 8.1 mph - N/A   Mostly Cloudy
4:53 PM 79.0 °F 30.9 °F 17% 30.01 in 10.0 mi WSW 5.8 mph - N/A   Mostly Cloudy
5:53 PM 75.0 °F 37.9 °F 26% 30.03 in 10.0 mi WSW 5.8 mph - N/A   Mostly Cloudy
6:53 PM 70.0 °F 44.1 °F 39% 30.04 in 10.0 mi West 6.9 mph - N/A   Mostly Cloudy
7:53 PM 66.9 °F 37.9 °F 34% 30.05 in 10.0 mi West 8.1 mph - N/A   Mostly Cloudy
8:53 PM 66.0 °F 36.0 °F 33% 30.05 in 10.0 mi Calm Calm - N/A   Scattered Clouds
9:53 PM 64.9 °F 37.0 °F 36% 30.06 in 10.0 mi Calm Calm - N/A   Scattered Clouds
10:53 PM 63.0 °F 41.0 °F 45% 30.06 in 10.0 mi NNE 4.6 mph - N/A   Scattered Clouds
11:53 PM 60.1 °F 39.0 °F 46% 30.06 in 10.0 mi Calm Calm - N/A   Scattered Clouds